DECAYED

STARLINK-2279, 47991 (Decayed)

Orbit data source: Space-Track

STARLINK-2279, 47991 was a payload satellite owned by SpaceX/Seattle (US) in LEO that was launched on Wed, 24 Mar 2021 UTC via an FALCON 9 launch vehicle from the Air Force Eastern Test Range (AFETR). Payload-class satellites include a variety of spacecraft equipped with specific instruments for various scientific and technological missions. These include communications satellites like Starlink; space stations such as the ISS; scientific satellites like the Hubble; Earth observation satellites from companies like Planet Labs, Umbra, and HawkEye 360; GPS; miniature CubeSats for education and research; and military/defense satellites.

Not visible in the next 10 days
Identifier
47991, 2021-024Q
Orbit
Decayed
Country
Flag of USUS
Related business
Manufacturer
SpaceX/Seattle
Mission
Decayed Commercial Communications
Bus & Motor
STARLINK, Unknown motor
Mass
260 kg wet, ~248 kg dry
Launch date (UTC)
2021-03-24 (5 years ago)
Launch vehicle
FALCON 9
Launch site
Air Force Eastern Test Range (AFETR)
Object type
Payload
Rocket body
Debris
Shape & HBR
Box + 1 Pan, 10.1 m
Radar Cross Section
13.562 m², Large (>1 m²)

Expand to show TLE details & history
Last TLE update: 1 year ago

TLE from 1 year ago
0 STARLINK-2279
1 47991U 21024Q   25030.02797649  .18181953  12557-4  52424-3 0  9993
2 47991  53.0198 241.7400 0005014 307.8981 174.6904 16.45108884214689
Epoch: 2025-01-30T00:40Z
TLE epoch observation values (Epoch: 2025-01-30T00:40:17.168Z)
Latitude
42.44362°
Longitude
-121.05282°
Altitude
159.58 km
Speed
7.814 km/s
True Right ascension
01h 14m 07s
True Declination
42° 15' 24"
Sunlit
Object was in daylight at epoch
Visualization orbit readout
Latitude
Unknown
Longitude
Unknown
Altitude
Unknown
Speed
Unknown
Apparent Right ascension
Unknown
Apparent Declination
Unknown
Sunlit
N/A
Visualization observer readout
Local Sidereal Time
21:34:08
Azimuth
Unknown
Elevation
Unknown
Doppler factor
Unknown
Orbital elements
Apogee altitude
155.814 km
Perigee altitude
149.265 km
Semi-major axis
6,530.677 km
Eccentricity
0.0005
Inclination
53.0198°
RAAN
241.74°
Arg. of periapsis
307.8981°
True anomaly
174.69571°
Mean anomaly
174.6904°
Eccentric anomaly
174.69306°
Mean motion
4.1125 °/min
Orbital period
87.54 mins
BSTAR
0.00052424
Loading maneuver chart data...
Computing Atmospheric mass density...

Documentation

Showing up to 5 results
|